Theta_e
301 301 302 302 302 303 303 302 301 301 300 300 301 301 301 301 301 302 302 303 303 303 302 303 303 304 306 307 309 312 320 326 330 327 329 321 321 322 322 324 321 323 324 324 324
305 306 308 309 310 311 310 304 303 302 301 301 301 300 300 301 301 303 303 303 302 302 302 302 303 306 306 305 306 312 316 323 322 324 324 319 317 318 315 313 317 320 322 323 321
309 310 311 312 313 314 314 307 305 306 302 301 301 301 300 300 301 303 304 304 303 301 302 303 303 307 304 304 305 309 314 315 316 319 320 313 311 314 311 312 317 319 322 322 321
313 313 313 313 314 314 314 314 312 309 311 311 304 301 300 300 299 303 304 303 302 301 301 301 305 306 303 304 305 307 310 313 315 315 313 310 312 311 310 317 319 319 318 318 320
312 313 314 314 314 314 314 315 315 314 314 313 311 304 300 299 300 302 302 302 301 301 301 301 306 307 304 305 307 309 307 310 312 313 313 311 308 310 309 315 315 315 316 317 316
313 314 314 314 314 314 314 314 315 315 315 314 309 304 299 296 302 301 301 301 301 301 301 301 306 307 307 308 309 309 308 308 310 310 309 306 307 307 311 313 313 312 314 315 316
313 313 313 314 314 314 314 314 314 315 315 315 308 300 298 303 303 302 300 300 300 301 301 302 306 307 307 307 308 306 306 306 306 308 307 306 306 304 313 312 311 312 313 313 314
310 310 310 310 312 313 314 314 314 314 315 314 307 300 300 304 301 301 300 299 299 300 301 303 306 305 305 306 306 305 305 308 309 306 307 308 312 310 312 309 309 310 310 311 313
296 296 296 297 298 303 311 314 314 314 314 308 302 299 300 302 301 301 299 299 299 299 300 302 303 304 303 305 306 305 307 306 308 305 303 305 308 308 308 306 306 307 309 310 310
297 296 296 297 297 297 297 309 313 312 307 302 300 299 302 303 302 301 301 299 299 299 300 300 301 300 300 305 305 305 305 304 306 306 302 302 303 304 306 305 305 307 308 309 309
298 298 297 296 295 296 296 303 312 310 303 304 304 304 309 311 309 306 302 299 299 299 297 299 298 299 300 305 302 304 304 305 305 303 303 302 303 304 305 303 302 304 305 306 307
297 297 298 298 298 298 302 307 299 299 298 307 310 312 314 314 306 303 299 299 298 297 295 297 298 298 298 300 302 303 304 303 301 301 301 301 301 302 301 302 303 304 304 304 306
295 295 295 295 295 298 302 302 301 300 300 305 308 310 310 310 306 307 300 298 297 296 296 298 298 296 299 299 301 301 303 303 303 300 298 298 301 302 300 300 302 302 303 303 304
293 293 294 293 295 294 297 300 300 302 304 305 305 305 303 305 301 302 303 301 296 298 295 297 296 296 297 298 299 301 298 301 301 301 299 297 299 301 302 303 300 301 303 305 305
292 291 290 290 290 291 293 293 300 303 300 298 302 300 298 301 298 296 298 298 297 296 297 299 295 296 297 298 298 299 295 297 298 297 298 298 298 300 301 301 301 301 302 303 304
291 288 288 289 289 291 291 292 298 303 303 300 297 296 296 296 297 297 297 298 297 296 296 297 296 296 296 296 296 296 298 298 296 296 297 297 298 304 301 300 301 303 305 306 306
288 288 288 289 291 292 292 292 301 302 296 296 296 296 296 296 296 296 296 296 297 298 299 297 297 296 296 297 297 298 298 299 297 296 301 296 296 303 301 300 299 300 300 305 306
289 288 289 290 291 292 292 292 297 288 292 299 297 296 297 296 296 296 296 295 296 296 296 299 299 296 295 298 299 298 298 300 299 299 300 296 299 301 298 298 300 300 303 305 305
289 289 288 288 290 290 291 291 288 295 294 294 296 298 291 296 296 296 294 294 296 295 298 296 298 295 296 296 298 298 299 298 299 292 300 301 300 300 301 301 300 300 303 304 304
288 288 288 288 289 289 287 291 292 292 292 292 294 297 297 297 296 295 295 295 297 296 296 298 299 296 295 295 295 297 298 299 297 297 298 300 300 302 303 303 301 300 298 301 302
287 289 288 288 287 290 281 282 290 290 291 292 291 293 295 296 298 298 297 296 295 295 296 297 302 296 295 295 297 297 298 297 298 300 302 300 301 297 301 301 299 297 297 298 299
288 283 288 288 286 280 280 288 289 290 290 291 293 292 292 292 293 296 299 300 301 297 297 296 300 299 294 294 293 295 298 298 300 298 298 300 301 299 299 298 297 295 296 297 297
288 288 288 288 280 278 282 286 288 289 290 291 291 291 291 291 291 291 292 292 292 295 303 299 301 294 303 298 293 293 295 298 298 299 299 301 301 297 297 295 294 295 295 295 296
287 283 288 288 288 287 284 284 286 288 289 290 290 291 290 289 290 292 290 291 290 292 296 297 303 302 305 303 294 294 294 297 300 302 303 302 302 299 298 296 294 294 294 294 294
288 285 287 284 285 279 283 287 288 288 288 289 288 290 289 288 289 290 289 289 289 293 292 293 297 305 305 302 297 295 294 296 298 301 302 305 301 299 297 296 293 292 292 293 294
287 287 287 287 286 284 281 285 287 288 286 287 287 289 288 288 289 289 289 289 289 289 290 292 295 298 302 304 307 308 304 296 298 298 300 300 300 298 295 292 291 290 290 289 289
287 287 287 287 285 284 283 287 288 288 288 288 287 288 288 288 289 288 288 289 289 289 289 291 295 294 297 299 303 306 307 297 300 300 301 301 301 297 296 292 290 289 288 288 287
Wind_Speed
13 13 13 13 13 14 15 16 16 15 16 17 16 17 18 20 20 21 25 23 20 15 17 15 11 10 9 8 12 7 2 9 15 11 12 6 5 9 8 11 8 12 15 11 11
13 13 13 14 15 16 18 15 15 16 17 18 18 19 18 20 23 25 25 24 20 15 15 13 11 10 7 7 8 6 4 11 6 7 6 5 8 6 5 7 10 18 21 20 16
16 15 15 14 15 16 18 16 17 17 17 18 18 19 18 17 21 10 5 5 10 14 14 13 9 10 7 8 10 6 7 8 6 16 11 4 5 8 7 6 22 22 27 27 25
17 16 16 17 17 17 18 19 17 18 20 20 20 18 17 14 7 3 4 6 5 9 14 13 11 7 5 7 11 4 15 10 6 7 6 5 5 6 17 25 24 19 23 21 33
17 17 17 18 19 20 20 20 21 21 21 22 20 18 16 11 18 22 19 16 12 11 15 16 16 9 6 5 6 5 4 10 16 19 20 15 13 12 11 42 33 29 26 24 28
21 22 21 20 20 21 23 24 24 23 24 24 21 16 13 7 14 15 14 14 13 13 15 18 9 14 5 6 6 4 7 11 12 20 11 8 9 8 17 37 32 33 39 36 33
24 24 25 24 24 24 24 24 26 25 25 24 21 15 15 27 19 17 16 15 14 14 15 16 16 10 4 3 6 4 6 6 9 9 8 9 7 11 41 36 34 35 35 40 42
29 30 30 29 27 25 25 25 26 26 26 24 18 14 12 17 16 21 21 21 18 15 14 12 15 13 6 5 4 3 1 4 3 6 4 11 14 12 25 21 30 30 30 32 34
29 30 31 31 30 29 26 24 24 25 24 19 13 9 10 13 12 14 18 16 14 15 13 10 10 8 3 4 4 3 6 8 7 9 3 7 5 7 6 9 18 19 21 25 30
30 30 31 32 32 31 27 24 24 17 13 11 12 7 16 10 8 7 10 14 10 12 7 8 7 3 1 5 12 9 7 5 6 2 2 6 18 16 26 21 24 31 35 35 30
33 34 36 37 33 29 24 18 8 6 6 10 9 18 30 33 30 24 18 17 11 8 7 6 4 10 15 21 1 4 4 5 2 2 3 8 20 17 17 16 15 28 33 38 44
31 32 34 38 21 20 15 6 8 12 18 28 36 42 43 39 16 21 20 17 12 8 7 2 16 16 7 6 7 6 5 10 5 4 4 9 25 18 16 23 27 31 35 39 46
30 31 33 33 21 14 10 11 10 14 8 18 35 31 25 30 26 31 32 17 7 10 14 13 7 6 13 6 11 10 18 6 9 5 4 6 23 15 10 15 23 31 39 41 43
32 32 32 35 11 27 10 13 14 13 5 8 8 9 11 13 7 19 35 18 6 16 9 11 5 8 6 11 10 15 10 7 6 3 5 1 12 8 4 14 8 14 30 40 37
31 32 30 25 27 27 21 17 7 2 5 8 5 5 11 8 6 3 26 11 7 8 8 10 10 8 11 9 13 7 5 8 4 4 2 3 3 6 3 6 9 13 24 27 27
32 38 34 26 24 21 25 21 9 3 12 7 3 2 3 3 2 4 11 4 4 5 4 5 1 6 7 3 7 9 7 6 4 3 3 10 8 32 7 8 5 3 4 2 1
35 35 26 22 21 19 20 16 4 8 6 9 5 3 4 5 4 5 7 8 7 6 12 3 6 4 4 6 2 3 7 0 2 0 9 2 6 23 12 11 7 8 9 10 12
36 31 19 21 19 23 21 3 9 3 6 9 11 8 5 3 4 5 5 4 9 2 3 8 6 12 8 9 10 8 8 7 9 6 4 3 10 8 8 10 18 13 15 13 11
34 27 16 21 19 22 11 1 4 8 9 17 21 8 6 4 5 5 7 5 7 13 10 6 6 0 2 1 9 7 9 4 6 2 2 5 8 8 13 13 9 6 7 8 3
34 27 16 22 24 19 3 5 7 18 14 11 7 8 10 12 13 6 9 5 5 16 3 5 3 0 1 1 1 5 3 3 1 3 4 6 7 7 12 7 6 9 8 7 6
30 14 17 19 22 7 2 4 10 21 17 5 11 7 12 14 9 7 6 7 9 9 11 3 5 1 2 7 9 4 4 2 3 5 6 2 6 5 3 3 8 8 17 24 19
21 4 18 23 8 1 0 6 18 11 12 6 6 11 10 16 6 7 10 11 21 10 5 6 2 8 11 1 2 4 8 8 5 6 3 2 6 4 5 8 11 10 20 28 31
20 9 16 19 2 4 8 6 7 10 10 10 7 3 5 9 8 14 18 24 32 12 6 5 4 2 0 2 3 3 5 4 4 3 7 6 6 5 6 9 13 12 19 24 27
10 3 9 9 3 3 3 7 7 9 11 9 9 6 7 12 9 8 19 10 30 23 22 24 5 6 15 10 6 6 8 14 14 5 13 7 4 3 5 7 7 13 20 22 26
6 3 7 4 9 1 2 5 13 11 3 7 9 7 11 6 12 6 14 15 16 8 13 9 8 11 20 20 3 4 7 14 15 24 16 24 14 9 6 6 6 10 15 22 25
9 7 8 9 11 5 4 4 11 8 2 14 4 12 14 11 11 17 15 11 6 16 12 2 6 15 15 16 17 21 12 11 21 20 20 19 12 5 10 16 13 14 14 15 17
18 20 10 8 4 1 4 8 19 19 15 11 11 12 16 18 14 22 24 26 18 17 14 4 6 9 4 13 14 12 12 10 8 6 13 17 14 3 7 11 11 12 13 14 14
Wind_Direction
20 14 9 2 353 346 338 328 321 315 309 304 299 297 296 295 294 286 283 282 273 261 243 246 241 233 220 209 202 191 193 237 240 214 236 178 193 221 229 226 215 218 227 231 233
18 14 9 4 358 352 348 339 332 324 315 308 305 300 298 299 297 289 287 270 262 249 234 220 217 205 183 193 195 180 199 228 214 230 229 199 206 203 213 218 243 243 236 231 233
6 3 358 357 355 350 348 342 338 334 324 313 306 302 299 304 307 287 259 262 248 231 220 219 217 197 199 181 197 199 223 231 252 233 230 214 225 221 204 230 234 242 255 240 230
356 349 348 348 343 343 339 340 335 330 328 320 308 299 297 299 278 259 250 271 277 222 220 214 194 186 203 202 201 204 243 230 258 249 218 232 229 238 215 246 255 256 257 251 233
338 337 336 338 335 333 333 329 329 327 326 320 312 299 292 273 257 270 269 270 261 238 227 218 194 188 191 209 192 218 255 248 254 260 251 261 249 237 253 264 262 259 255 246 243
330 328 325 324 325 324 324 326 324 323 322 322 315 294 274 252 269 261 260 257 249 242 232 212 218 219 232 219 183 229 248 262 271 264 237 210 247 208 252 264 265 257 250 246 244
322 320 319 318 318 317 316 317 317 317 317 316 310 291 262 265 266 261 252 245 243 238 234 225 215 204 211 261 244 258 293 291 229 236 229 215 258 224 253 254 265 256 254 248 243
314 314 314 314 314 314 314 316 317 312 308 306 299 281 258 270 252 253 252 248 246 235 232 228 224 234 225 295 314 273 182 293 289 146 229 161 258 248 256 250 256 259 254 252 250
330 327 321 315 312 307 305 313 313 310 297 292 287 256 262 261 258 255 246 240 239 234 226 221 205 223 188 142 327 258 246 215 311 198 136 192 256 257 261 253 266 270 265 256 252
341 335 327 318 317 317 316 308 315 299 284 280 253 263 241 247 250 257 246 225 210 198 186 194 199 173 151 148 227 204 234 236 222 185 194 264 259 270 271 269 267 273 273 271 262
350 348 343 332 333 328 324 333 345 305 264 242 260 253 272 276 274 259 234 199 185 185 180 201 172 205 200 210 252 147 218 231 235 171 241 238 264 262 266 261 248 259 262 264 266
351 348 347 343 357 358 331 59 32 301 294 276 271 266 260 260 252 232 201 178 177 194 136 111 233 220 198 217 233 244 269 258 277 258 202 294 278 271 260 258 245 249 255 253 259
352 351 348 342 350 334 18 33 345 335 260 274 263 253 245 233 236 234 196 192 175 174 190 200 210 172 187 181 206 233 235 227 241 331 256 320 280 270 243 256 252 249 249 255 250
355 349 347 347 358 351 341 302 330 342 287 274 222 244 196 190 234 223 210 199 210 209 157 236 197 144 179 212 172 240 197 182 189 127 246 63 285 217 221 252 223 239 244 250 256
357 351 350 346 331 331 322 322 292 325 286 259 205 187 169 186 133 179 182 195 186 175 145 224 173 181 198 199 181 233 140 166 150 173 16 198 255 261 64 269 265 241 246 261 267
353 353 353 344 333 343 320 317 294 222 244 273 150 122 115 244 214 121 173 183 174 149 253 241 159 178 197 85 164 150 86 61 56 105 280 181 169 277 222 220 259 249 189 193 173
359 356 357 350 347 332 323 312 222 214 337 308 351 359 310 223 220 182 170 183 170 153 225 129 210 177 156 100 61 151 125 229 333 358 236 215 187 251 305 274 230 259 278 297 284
353 360 17 9 3 358 349 35 231 267 298 354 360 300 230 169 251 188 155 205 243 113 115 183 272 170 179 193 165 198 175 170 195 193 228 105 235 248 232 280 269 271 276 276 310
352 356 7 2 357 350 13 263 245 343 7 343 327 301 291 265 221 161 209 230 218 183 184 159 261 138 328 176 153 188 219 140 99 57 47 219 275 272 269 271 307 330 285 263 229
356 353 12 353 341 337 56 307 324 333 331 330 314 309 342 330 329 309 181 212 229 193 170 233 277 203 132 258 300 160 176 102 10 171 226 261 281 237 296 302 360 7 6 339 22
3 351 358 350 345 37 115 244 310 319 337 325 306 293 299 333 329 328 299 328 353 350 213 183 178 92 84 216 186 147 182 214 146 170 185 242 258 222 293 42 53 15 39 47 52
357 352 344 351 16 32 313 297 310 306 320 288 284 331 4 332 303 279 271 304 336 327 277 244 202 215 202 253 350 329 208 167 146 225 236 156 263 5 54 103 69 35 40 50 63
339 304 357 352 59 315 311 304 264 311 317 316 298 295 326 328 322 335 4 332 344 343 329 326 244 240 70 5 17 214 215 229 97 105 202 154 261 356 83 71 46 54 37 41 44
343 342 341 347 339 306 316 298 303 315 282 321 295 304 328 319 321 299 343 334 330 319 335 340 213 245 240 221 138 187 202 204 203 210 222 211 143 270 56 70 42 43 42 38 38
346 292 315 306 320 223 288 270 297 325 294 342 310 311 341 298 316 348 325 322 327 333 334 359 292 271 237 260 179 206 213 203 207 221 216 230 216 217 156 107 75 61 46 41 32
348 326 322 290 296 311 306 279 297 304 76 309 282 311 327 297 276 298 317 316 274 307 329 347 296 301 303 265 248 249 230 201 209 227 239 256 254 99 91 84 54 40 43 48 41
343 327 305 294 307 314 256 283 299 302 293 264 277 302 297 289 303 299 289 281 270 275 287 277 298 331 269 342 295 253 233 192 198 211 223 239 253 3 61 61 55 55 44 43 41